Probability
0 0 0 0 0 0 0 0 0 0 0 0 0 0 0 3 3 6 6 10 19 26 23 48 52 48 45 42 39 39 42 45 42 39 32 29 32 29 35 35 29 32 39 42 32 26 23 23 26
0 0 0 0 0 0 0 0 0 0 0 0 0 0 0 0 3 3 6 10 16 16 10 16 48 39 39 39 35 35 42 45 45 42 32 32 32 26 32 26 26 29 32 39 29 32 26 23 29
0 0 0 0 0 0 0 0 0 0 0 0 0 0 0 0 0 6 10 6 10 10 10 23 39 35 39 35 39 35 39 39 48 42 35 32 23 23 23 29 23 29 26 26 16 19 19 19 32
0 0 0 0 0 0 0 0 0 0 0 0 0 0 0 0 0 6 13 13 10 10 16 19 39 32 29 35 32 39 39 32 39 35 32 32 29 29 23 32 29 26 29 13 19 16 16 19 26
0 0 0 0 0 0 0 0 0 0 0 0 0 0 0 0 0 6 10 13 10 6 16 16 32 23 23 26 29 29 35 35 32 26 29 29 26 26 32 26 32 26 13 10 10 13 10 16 16
0 0 0 0 0 0 0 0 0 0 0 0 0 0 0 0 0 0 3 6 6 6 10 16 23 23 19 23 26 32 32 29 29 29 32 23 26 23 26 26 29 19 13 13 10 10 10 16 16
0 0 0 0 0 0 0 0 0 0 0 0 0 0 0 0 0 3 6 6 6 6 6 10 16 16 13 13 19 23 26 26 26 26 26 26 23 32 32 32 26 23 13 10 10 10 10 16 13
0 0 0 0 0 0 0 0 0 0 0 0 0 0 0 3 3 3 3 10 6 10 10 6 6 6 10 10 10 13 16 19 19 19 19 16 19 23 23 29 29 26 23 13 13 16 16 13 10
0 0 0 0 0 0 0 0 0 0 0 0 0 0 0 6 3 3 6 10 10 10 10 10 13 10 6 6 6 10 10 13 10 13 0 0 6 13 6 6 16 19 16 13 13 13 16 10 6
0 0 0 0 0 0 0 0 0 0 0 0 0 0 0 6 6 3 3 6 6 10 10 3 6 6 10 10 6 6 3 3 0 3 3 0 0 6 3 0 0 3 3 3 6 6 6 3 0
0 0 0 0 0 0 0 0 0 0 0 0 0 0 0 0 6 0 0 6 6 3 6 3 6 6 3 3 6 3 3 3 0 0 3 0 0 0 0 0 0 0 0 0 0 0 0 0 0
0 0 0 0 0 0 0 0 0 0 0 0 0 0 0 0 0 0 0 0 0 3 3 3 6 6 3 0 0 3 6 3 3 3 0 3 0 0 0 0 0 0 0 0 0 0 0 0 0
0 0 0 0 0 0 0 0 0 0 0 0 0 0 0 0 0 0 0 0 0 0 0 0 6 3 0 0 0 0 3 3 3 3 3 0 0 0 0 0 0 0 0 0 0 0 0 0 0
0 0 0 0 0 0 0 0 0 0 0 0 0 0 0 0 0 0 0 0 0 0 0 0 3 0 0 0 0 0 0 0 3 3 3 0 0 0 0 0 0 0 0 0 0 0 0 0 0
0 0 0 0 0 0 0 0 0 0 0 0 0 0 0 0 0 0 0 0 0 0 0 0 0 0 0 0 0 0 0 0 3 3 0 0 0 0 0 0 0 0 0 0 0 0 0 0 0
0 0 0 0 0 0 0 0 0 0 0 0 0 0 0 0 0 0 0 0 0 0 0 0 0 0 0 0 0 0 0 0 0 3 3 0 0 0 0 0 0 0 0 0 0 0 0 0 0
0 0 0 0 0 0 0 0 0 0 0 0 0 0 0 0 0 0 0 0 0 0 0 0 0 0 0 0 0 0 0 0 0 0 0 0 0 0 0 0 0 0 0 0 0 0 0 0 0
0 0 0 0 0 0 0 0 0 0 0 0 0 0 0 0 0 0 0 0 0 0 0 0 0 0 0 0 0 0 0 0 0 0 0 0 0 0 0 0 0 0 0 0 0 0 0 0 0
0 0 0 0 0 0 0 0 0 0 0 0 0 0 0 0 0 0 0 0 0 0 0 0 0 0 0 0 0 0 0 0 0 0 0 0 0 0 0 0 0 0 0 0 0 0 0 0 0
0 0 0 0 0 0 0 0 0 0 0 0 0 0 0 0 0 0 0 0 0 0 0 0 0 0 0 0 0 0 0 0 0 0 0 0 0 0 0 0 0 0 0 0 0 0 0 0 0
0 0 0 0 0 0 0 0 0 0 0 0 0 0 0 0 0 0 0 0 0 0 0 0 0 0 0 0 0 0 0 0 0 0 0 0 0 0 0 0 0 0 0 0 0 0 0 0 0
0 0 0 0 0 0 0 0 0 0 0 0 0 0 0 0 0 0 0 0 0 0 0 0 0 0 0 0 0 0 0 0 0 0 0 0 0 0 0 0 0 0 0 0 0 0 0 0 0
0 0 0 0 0 0 0 0 0 0 0 0 0 0 0 0 0 0 0 0 0 0 0 0 0 0 0 0 0 0 0 0 0 0 0 0 0 0 0 0 0 0 0 0 0 0 0 0 0
0 0 0 0 0 0 0 0 0 0 0 0 0 0 0 0 0 0 0 0 0 0 0 0 0 0 0 0 0 0 0 0 0 0 0 0 0 0 0 0 0 0 0 0 0 0 0 0 0
0 0 0 0 0 0 0 0 0 0 0 0 0 0 0 0 0 0 0 0 0 0 0 0 0 0 0 0 0 0 0 0 0 0 0 0 0 0 0 0 0 0 0 0 0 0 0 0 0
0 0 0 0 0 0 0 0 0 0 0 0 0 0 0 0 0 0 0 0 0 0 0 0 0 0 0 0 0 0 0 0 0 0 0 0 0 0 0 0 0 0 0 0 0 0 0 0 0
0 0 0 0 0 0 0 0 0 0 0 0 0 0 0 0 0 0 0 0 0 0 0 0 0 0 0 0 0 0 0 0 0 0 0 0 0 0 0 0 0 0 0 0 0 0 0 0 0
0 0 0 0 0 0 0 0 0 0 0 0 0 0 0 0 0 0 0 0 0 0 0 0 0 0 0 0 0 0 0 0 0 0 0 0 0 0 0 0 0 0 0 0 0 0 0 0 0
0 0 0 0 0 0 0 0 0 0 0 0 0 0 0 0 0 0 0 0 0 0 0 0 0 0 0 0 0 0 0 0 0 0 0 0 0 0 0 0 0 0 0 0 0 0 0 0 0
0 0 0 0 0 0 0 0 0 0 0 0 0 0 0 0 0 0 0 0 0 0 0 0 0 0 0 0 0 0 0 0 0 0 0 0 0 0 0 0 0 0 0 0 0 0 0 0 0
Height
5816 5817 5818 5819 5820 5820 5820 5821 5821 5822 5822 5824 5824 5825 5825 5826 5828 5830 5830 5830 5831 5832 5832 5833 5835 5836 5837 5838 5839 5840 5841 5842 5843 5844 5845 5846 5847 5847 5848 5849 5850 5850 5851 5852 5853 5854 5854 5855 5856
5813 5814 5815 5816 5816 5817 5818 5818 5818 5819 5820 5821 5821 5822 5822 5823 5824 5824 5825 5826 5827 5829 5829 5830 5831 5833 5834 5835 5836 5837 5838 5839 5840 5841 5842 5844 5845 5846 5846 5847 5848 5849 5850 5851 5852 5853 5853 5854 5855
5810 5811 5812 5812 5813 5814 5814 5815 5815 5816 5816 5817 5818 5818 5819 5820 5820 5821 5822 5823 5824 5825 5826 5827 5828 5829 5831 5832 5833 5834 5835 5837 5838 5839 5840 5841 5842 5843 5844 5845 5846 5847 5848 5849 5850 5851 5852 5853 5853
5807 5808 5809 5810 5810 5810 5811 5811 5811 5812 5813 5813 5814 5815 5815 5816 5817 5817 5818 5819 5820 5822 5823 5824 5825 5826 5827 5829 5830 5831 5832 5834 5835 5836 5837 5838 5839 5840 5841 5842 5844 5845 5846 5847 5848 5849 5850 5851 5852
5803 5804 5805 5805 5806 5806 5807 5807 5807 5808 5809 5809 5809 5810 5811 5812 5812 5813 5814 5815 5816 5818 5819 5820 5821 5822 5823 5825 5826 5827 5829 5830 5831 5832 5833 5835 5835 5837 5838 5839 5841 5842 5843 5845 5846 5847 5848 5849 5850
5800 5800 5801 5801 5802 5802 5802 5803 5803 5803 5804 5805 5805 5806 5807 5808 5808 5809 5810 5811 5812 5814 5815 5816 5817 5818 5819 5820 5822 5823 5825 5826 5827 5829 5830 5831 5832 5833 5835 5836 5837 5839 5840 5842 5843 5844 5845 5846 5847
5796 5796 5796 5797 5797 5797 5798 5798 5798 5799 5799 5800 5800 5801 5802 5803 5804 5804 5805 5806 5808 5809 5810 5811 5812 5813 5815 5816 5817 5819 5820 5821 5823 5824 5826 5827 5828 5829 5831 5832 5834 5835 5837 5838 5839 5841 5842 5843 5844
5790 5791 5791 5792 5792 5793 5793 5793 5794 5794 5794 5795 5795 5796 5796 5798 5798 5799 5800 5801 5803 5804 5805 5806 5807 5809 5810 5811 5813 5814 5815 5817 5818 5820 5821 5822 5824 5825 5827 5828 5830 5831 5832 5834 5835 5837 5838 5840 5841
5785 5787 5786 5787 5787 5787 5787 5788 5788 5788 5789 5789 5789 5790 5791 5792 5793 5793 5795 5796 5797 5798 5799 5801 5802 5803 5804 5806 5807 5809 5810 5811 5813 5814 5816 5818 5819 5820 5822 5823 5825 5826 5828 5830 5831 5833 5834 5836 5837
5780 5780 5782 5782 5781 5781 5781 5782 5782 5782 5782 5783 5783 5784 5784 5785 5786 5787 5788 5790 5791 5792 5793 5794 5796 5797 5799 5800 5801 5803 5804 5806 5807 5809 5811 5812 5814 5815 5817 5819 5820 5822 5823 5825 5826 5828 5829 5831 5832
5774 5775 5776 5775 5774 5774 5774 5775 5775 5775 5776 5776 5777 5777 5778 5778 5780 5781 5782 5783 5784 5785 5787 5788 5789 5791 5792 5794 5795 5797 5798 5800 5801 5803 5805 5806 5808 5810 5811 5813 5815 5816 5818 5820 5821 5823 5824 5826 5827
5767 5768 5768 5768 5767 5767 5767 5767 5767 5768 5769 5769 5769 5770 5771 5771 5773 5774 5775 5776 5777 5778 5779 5781 5782 5784 5785 5787 5788 5790 5792 5793 5795 5797 5798 5800 5802 5803 5805 5807 5809 5811 5812 5814 5815 5817 5819 5820 5822
5760 5761 5761 5760 5760 5759 5759 5759 5760 5761 5761 5761 5761 5762 5763 5764 5765 5766 5767 5768 5769 5770 5772 5773 5775 5776 5778 5779 5781 5783 5785 5786 5788 5790 5792 5793 5795 5797 5799 5801 5802 5804 5806 5808 5809 5811 5813 5814 5816
5753 5752 5752 5752 5751 5751 5751 5751 5751 5753 5753 5753 5753 5754 5755 5755 5756 5757 5758 5759 5760 5762 5763 5765 5766 5768 5770 5772 5774 5775 5777 5779 5781 5783 5784 5786 5788 5790 5792 5794 5796 5797 5799 5801 5803 5804 5806 5808 5809
5744 5743 5744 5743 5742 5742 5742 5743 5743 5744 5744 5744 5745 5745 5746 5746 5747 5748 5749 5750 5751 5753 5754 5756 5758 5759 5761 5763 5765 5768 5770 5771 5773 5775 5777 5779 5781 5783 5784 5786 5788 5790 5792 5794 5795 5797 5799 5801 5803
5735 5734 5733 5734 5733 5732 5733 5733 5734 5734 5734 5735 5735 5736 5737 5737 5738 5738 5739 5740 5742 5744 5745 5747 5749 5750 5752 5754 5757 5759 5761 5763 5765 5767 5769 5771 5773 5775 5777 5779 5780 5782 5784 5786 5788 5790 5791 5793 5795
5725 5724 5723 5724 5723 5722 5722 5723 5724 5724 5724 5725 5726 5726 5727 5727 5728 5728 5729 5731 5732 5734 5736 5738 5740 5741 5743 5745 5747 5750 5752 5755 5757 5759 5761 5763 5765 5766 5768 5770 5772 5774 5776 5778 5780 5782 5784 5785 5787
5716 5714 5713 5713 5712 5711 5711 5712 5713 5713 5713 5714 5715 5716 5716 5717 5718 5719 5720 5721 5722 5724 5726 5728 5730 5731 5733 5735 5737 5740 5743 5746 5748 5750 5752 5754 5756 5758 5760 5762 5764 5766 5768 5770 5772 5774 5776 5777 5779
5705 5704 5703 5703 5702 5701 5701 5701 5702 5702 5703 5703 5704 5705 5706 5707 5708 5709 5710 5711 5713 5714 5716 5717 5719 5720 5722 5724 5727 5730 5733 5736 5739 5741 5743 5745 5747 5749 5751 5753 5755 5757 5759 5761 5763 5765 5767 5769 5770
5695 5694 5693 5694 5693 5691 5691 5691 5691 5691 5692 5693 5694 5695 5696 5697 5698 5699 5700 5701 5703 5704 5706 5707 5708 5709 5711 5714 5717 5720 5723 5726 5729 5731 5733 5736 5738 5740 5742 5744 5746 5748 5750 5752 5754 5756 5758 5760 5761
5685 5684 5683 5683 5682 5681 5680 5680 5681 5681 5681 5683 5684 5685 5685 5686 5688 5689 5690 5691 5692 5693 5695 5696 5697 5699 5700 5703 5706 5709 5713 5716 5719 5721 5724 5726 5728 5730 5732 5734 5736 5739 5741 5743 5745 5747 5749 5750 5752
5675 5674 5672 5671 5671 5670 5670 5667 5670 5670 5670 5671 5672 5674 5675 5676 5677 5678 5679 5681 5682 5683 5684 5685 5686 5688 5690 5693 5696 5699 5703 5706 5709 5711 5713 5716 5718 5720 5722 5725 5727 5729 5731 5734 5736 5738 5739 5741 5742
5664 5663 5661 5660 5659 5659 5659 5656 5659 5659 5659 5660 5660 5662 5663 5665 5666 5667 5668 5670 5671 5672 5673 5674 5675 5677 5680 5682 5685 5688 5692 5695 5698 5700 5703 5706 5708 5710 5712 5715 5717 5719 5722 5724 5726 5728 5729 5731 5733
5653 5652 5651 5649 5647 5647 5649 5646 5646 5648 5648 5648 5649 5649 5651 5653 5655 5656 5657 5658 5660 5661 5662 5664 5665 5667 5669 5671 5674 5678 5681 5685 5687 5690 5693 5695 5698 5700 5702 5704 5707 5709 5711 5714 5716 5718 5719 5721 5722
5643 5641 5639 5637 5636 5636 5638 5635 5636 5637 5636 5636 5637 5638 5640 5642 5643 5644 5646 5647 5649 5650 5652 5653 5655 5656 5658 5661 5663 5667 5670 5674 5676 5679 5682 5684 5687 5689 5692 5694 5696 5699 5701 5703 5705 5707 5709 5711 5712
5633 5631 5629 5627 5626 5626 5627 5625 5626 5626 5626 5626 5626 5627 5628 5630 5631 5632 5634 5636 5637 5639 5641 5642 5644 5646 5648 5650 5653 5656 5659 5662 5665 5668 5671 5673 5676 5679 5681 5683 5685 5688 5690 5692 5694 5697 5699 5700 5702
5623 5621 5620 5617 5615 5615 5616 5615 5615 5614 5614 5614 5615 5615 5617 5618 5619 5621 5622 5624 5625 5627 5629 5631 5633 5635 5637 5639 5642 5645 5648 5650 5654 5656 5659 5662 5665 5667 5670 5672 5674 5677 5679 5682 5684 5686 5688 5690 5691
5615 5612 5610 5607 5605 5604 5606 5606 5605 5604 5604 5604 5604 5604 5605 5607 5608 5609 5610 5612 5614 5615 5617 5619 5621 5623 5626 5628 5631 5634 5636 5639 5642 5645 5648 5650 5653 5656 5658 5661 5663 5666 5668 5671 5673 5676 5677 5679 5681
5607 5604 5601 5599 5597 5595 5595 5597 5594 5594 5593 5593 5593 5594 5595 5596 5597 5598 5599 5600 5602 5604 5605 5607 5609 5612 5614 5617 5620 5622 5625 5628 5631 5634 5636 5639 5642 5645 5647 5650 5652 5655 5657 5660 5662 5665 5667 5668 5670
5597 5595 5592 5591 5589 5586 5585 5588 5585 5584 5583 5583 5583 5583 5584 5584 5585 5586 5588 5589 5590 5592 5594 5596 5598 5600 5603 5605 5608 5611 5614 5617 5620 5623 5625 5628 5630 5633 5636 5638 5641 5644 5646 5649 5651 5654 5655 5657 5659
Wind_Speed
16 16 16 17 17 17 17 17 17 17 18 18 19 19 20 20 20 21 19 18 18 17 17 17 17 17 17 16 15 15 15 14 13 13 12 12 11 10 10 9 9 9 9 9 8 8 8 7 7
17 18 18 18 18 18 17 17 18 18 19 18 19 20 21 21 21 21 20 20 19 18 18 19 18 18 18 18 17 17 16 16 15 15 14 14 13 13 12 11 11 11 10 10 10 9 9 9 9
18 18 19 19 19 19 18 18 19 19 19 19 20 21 21 21 21 21 21 21 20 20 20 19 19 19 19 19 18 18 17 17 17 17 16 15 15 15 14 14 13 12 12 11 11 10 10 10 10
18 19 20 20 20 20 20 20 20 20 20 20 21 21 21 21 22 22 22 22 21 21 21 21 21 21 21 20 20 19 19 18 18 18 18 17 17 16 16 15 15 14 13 13 13 12 11 11 11
20 20 20 20 20 21 21 22 22 22 21 21 22 22 22 23 23 23 23 22 22 22 22 22 22 22 22 21 21 21 21 20 20 20 19 18 19 18 18 17 17 16 15 15 14 14 13 13 13
21 22 22 21 21 22 22 22 23 23 23 23 23 24 23 24 24 24 24 23 23 23 22 23 23 23 23 22 22 22 22 22 22 22 21 20 20 19 20 19 19 18 18 17 17 16 16 15 14
22 22 22 22 23 23 23 23 24 24 24 25 25 25 25 25 25 25 25 25 24 24 24 24 24 24 24 24 24 24 24 24 23 23 23 23 22 22 21 21 21 21 20 20 19 19 18 17 16
22 22 23 23 24 24 25 25 25 25 26 26 27 27 27 26 26 26 26 26 26 26 25 25 25 25 25 25 25 25 25 25 25 25 25 25 24 24 23 23 22 22 22 22 21 21 21 20 19
23 24 23 24 25 25 26 26 27 27 27 27 28 28 28 27 28 28 28 28 28 27 27 27 27 27 27 27 27 26 26 27 26 26 26 26 26 26 25 25 24 24 24 24 23 23 23 22 22
24 25 25 25 26 27 27 27 28 29 29 29 29 29 29 29 29 29 29 29 29 29 29 29 29 28 28 29 28 28 28 28 28 27 27 27 27 27 27 26 26 25 25 25 25 25 25 24 24
26 26 26 27 28 29 29 28 29 30 30 30 30 30 29 30 30 30 30 30 31 31 31 31 30 30 30 30 29 29 29 29 29 29 28 28 28 28 28 28 27 27 27 26 26 26 26 26 26
28 27 28 28 29 30 31 31 31 31 31 31 31 31 31 31 31 31 32 32 32 32 33 33 32 32 32 31 30 30 30 30 30 30 30 29 29 29 29 29 29 29 28 28 28 28 28 28 27
30 29 30 30 31 32 32 32 33 32 32 32 33 32 32 32 32 33 33 33 34 34 34 34 34 34 33 33 32 31 31 31 31 31 31 31 31 30 30 30 30 30 30 30 29 29 29 29 29
31 32 32 32 33 34 34 34 35 33 33 34 35 34 34 35 35 35 35 35 36 36 36 36 35 35 35 34 34 33 32 32 32 32 32 32 32 31 31 31 31 31 31 31 31 31 30 30 30
33 33 34 34 35 36 36 35 36 36 36 36 36 36 36 37 37 37 37 37 37 37 37 37 37 37 36 35 35 35 34 34 33 33 33 33 33 32 32 32 32 32 33 33 32 32 32 32 31
34 35 36 35 36 37 38 37 37 37 37 38 38 38 38 38 38 38 38 38 38 37 37 38 38 38 38 38 37 36 36 35 35 34 35 35 34 33 34 34 34 34 33 33 33 33 33 33 33
36 37 37 36 37 38 39 39 38 38 39 39 39 39 39 39 39 39 39 39 39 39 39 39 38 39 39 39 39 38 37 37 36 36 36 36 36 35 35 35 35 35 35 34 34 34 34 33 33
38 38 38 37 37 38 39 39 39 39 40 40 39 40 40 40 39 39 39 39 40 40 40 39 39 39 40 40 40 40 39 39 38 37 37 37 37 37 37 36 36 36 36 36 36 35 35 35 35
38 38 38 37 37 38 39 39 39 39 39 39 40 40 40 40 39 39 40 40 40 40 40 40 40 40 41 41 41 41 41 40 39 38 38 38 38 38 38 37 37 37 37 37 37 36 36 36 37
38 38 38 37 38 38 39 40 40 39 39 39 39 40 40 39 39 40 40 41 41 41 41 41 41 40 40 41 41 42 41 41 40 40 40 39 39 38 38 38 38 38 38 38 37 37 37 37 37
38 38 38 39 39 39 41 41 40 39 39 39 39 39 40 40 40 40 40 41 41 42 42 42 42 41 41 41 42 42 42 41 41 40 40 40 40 39 39 39 39 39 39 38 38 38 37 38 39
38 38 40 40 40 40 40 42 41 40 40 39 40 40 40 40 41 41 41 41 41 41 42 42 42 42 41 41 42 43 42 41 40 41 41 41 41 41 40 40 40 40 40 40 39 39 39 39 39
39 39 40 40 41 42 41 43 42 41 41 40 40 41 40 40 41 40 40 41 41 41 42 42 42 43 43 43 43 42 42 42 41 42 42 42 41 41 40 41 41 41 41 41 41 40 40 39 39
40 40 40 40 42 43 41 42 42 39 40 40 41 42 42 41 41 40 40 41 41 41 41 42 42 43 44 43 43 42 42 42 42 43 43 43 42 41 41 42 42 42 42 42 41 41 40 40 40
39 39 39 40 40 41 39 40 41 39 40 41 41 42 42 42 42 42 41 41 41 41 41 42 41 42 43 43 43 43 43 43 44 44 43 43 43 42 43 43 43 43 43 42 42 41 42 42 40
38 37 37 38 39 40 38 39 39 39 41 41 42 42 42 42 43 43 42 42 41 41 41 42 42 42 42 43 43 43 44 45 45 45 44 44 44 43 43 43 43 43 42 43 43 42 42 42 41
36 35 35 37 38 39 38 37 37 37 38 39 40 41 41 41 41 40 40 41 40 40 41 42 42 42 42 43 44 43 44 44 45 45 45 44 44 44 44 44 43 43 42 42 42 42 42 42 41
34 34 33 34 36 37 38 37 37 37 37 38 39 39 39 40 39 39 40 40 40 40 40 41 41 42 42 42 43 43 43 43 44 44 45 45 44 44 44 44 43 43 44 43 43 42 42 42 41
33 33 32 33 34 35 36 36 37 38 38 39 39 39 40 40 40 40 40 40 40 40 40 40 40 40 41 41 41 42 42 43 43 43 44 44 44 44 44 44 43 43 43 43 42 42 42 41 41
33 31 31 32 33 34 36 37 36 37 38 39 39 39 39 39 40 40 39 39 40 40 40 40 40 40 41 41 41 41 41 42 42 42 43 43 43 43 43 43 43 43 43 43 42 41 41 41 41
Wind_Direction
262 261 260 260 259 258 258 259 259 257 256 256 256 255 255 256 256 258 258 256 254 251 250 248 247 247 246 245 246 245 244 243 242 240 240 240 240 239 238 238 238 237 234 231 229 228 229 231 229
262 262 261 260 259 259 259 261 260 259 259 258 257 255 255 255 255 257 256 254 252 251 250 249 248 248 247 247 247 247 245 244 243 241 240 241 241 242 241 240 240 240 239 236 234 233 233 234 234
264 263 262 260 259 261 263 263 263 263 262 259 257 256 255 255 255 255 254 253 252 251 251 249 248 248 248 247 248 248 246 244 243 242 241 241 241 242 242 242 242 242 242 240 239 239 238 238 239
264 263 262 262 262 262 263 264 264 263 262 260 258 256 255 254 253 253 253 253 252 251 251 251 250 250 249 248 248 249 248 246 244 243 242 242 242 242 243 243 243 243 242 241 242 243 243 242 241
264 263 263 263 262 262 262 264 263 262 261 261 259 257 255 254 253 253 254 253 253 252 252 252 252 251 250 250 249 248 248 247 245 244 243 243 243 242 243 244 243 242 242 242 243 244 245 245 244
265 265 264 264 264 263 262 263 264 263 262 262 261 260 257 256 255 254 254 254 254 253 252 252 252 252 252 252 251 250 249 248 247 246 245 244 245 244 244 245 245 245 244 244 244 246 247 248 248
266 265 265 265 265 264 263 262 263 263 263 263 263 262 260 257 257 255 254 254 253 253 252 252 252 252 252 251 251 251 250 249 249 247 246 246 246 246 246 246 246 246 246 246 246 247 248 250 251
268 267 266 265 265 265 264 264 263 263 264 264 264 263 260 258 257 256 255 254 253 253 252 252 253 253 253 252 252 252 251 250 250 249 248 248 247 247 248 248 247 247 247 247 247 247 248 250 252
270 269 269 268 267 267 266 265 265 264 264 264 264 264 261 259 258 257 255 254 253 253 253 252 252 253 254 254 253 252 252 251 251 250 250 249 249 248 248 249 249 249 248 248 248 249 250 251 252
272 272 272 270 269 268 267 266 265 264 264 264 264 263 262 260 258 257 257 256 255 254 253 253 253 253 254 255 254 254 253 252 252 251 250 250 250 250 249 250 250 250 250 250 250 250 252 252 253
274 274 273 271 270 269 268 266 266 265 264 264 264 263 262 261 260 259 258 257 256 254 254 254 254 254 254 254 255 254 254 253 252 252 251 250 251 251 250 251 251 251 251 251 251 251 252 253 254
276 275 274 272 271 270 269 267 265 266 266 266 265 264 264 263 262 262 260 259 257 256 255 254 254 254 254 254 254 254 254 254 253 252 252 252 252 252 252 252 252 252 252 252 252 252 252 253 254
278 276 274 273 271 270 270 268 267 266 266 266 265 265 264 264 263 262 261 259 258 257 256 256 254 254 253 253 253 253 254 254 253 253 253 253 252 252 252 252 253 253 253 253 253 253 253 254 255
279 277 275 273 272 271 270 268 267 266 266 265 265 265 263 263 262 262 261 259 258 257 256 255 255 255 254 252 252 253 253 253 253 253 253 254 254 253 253 253 253 254 254 254 254 254 255 256 257
280 278 275 274 272 271 270 267 267 266 266 265 265 265 264 264 263 262 261 260 258 257 256 255 255 255 254 253 252 252 253 253 253 254 254 255 255 254 254 254 255 255 255 255 254 255 256 256 257
281 279 278 275 273 272 271 269 268 267 266 265 264 265 265 264 264 262 260 259 257 255 255 255 255 255 255 254 253 253 253 253 254 255 255 256 255 254 254 255 255 256 256 256 256 256 257 257 257
281 280 279 277 274 272 271 270 269 269 268 266 266 266 265 264 263 261 259 258 257 255 255 256 255 255 255 254 253 253 252 253 254 255 256 256 255 255 256 256 256 257 257 257 257 257 257 257 258
283 282 280 278 276 274 272 271 270 270 269 269 267 266 265 264 262 260 259 259 258 256 256 256 256 256 254 254 253 252 252 253 254 255 256 256 255 255 255 256 257 257 257 258 258 258 257 256 258
282 280 279 278 278 276 274 274 273 270 269 268 267 266 265 263 261 260 258 259 259 257 257 256 256 256 254 252 251 250 252 253 254 255 255 255 255 255 255 256 256 257 258 259 259 257 258 258 259
282 280 279 278 277 276 275 274 273 271 269 269 268 267 266 264 261 260 259 258 258 258 257 257 256 255 253 252 251 250 251 253 253 254 255 254 254 255 255 255 256 257 258 259 259 260 260 260 261
283 281 279 278 277 277 277 276 273 270 269 269 269 267 265 264 263 261 259 258 258 258 256 256 255 254 254 252 251 250 250 251 252 252 254 254 254 255 255 256 256 256 257 258 259 260 261 262 262
283 281 280 278 278 279 279 278 274 273 270 270 269 267 265 263 262 261 259 258 259 258 257 256 255 254 253 252 251 250 249 250 250 251 253 254 254 255 254 255 256 257 257 257 258 259 261 262 262
284 282 281 279 278 278 279 278 276 274 272 270 268 266 264 262 262 260 259 259 260 259 258 257 255 253 253 253 252 251 250 250 250 251 252 254 254 254 254 254 255 256 257 258 258 259 261 261 262
287 284 282 279 278 277 278 278 276 274 273 270 268 266 264 263 261 260 260 260 260 260 259 257 255 254 254 253 252 250 250 250 250 251 252 253 254 254 254 255 255 256 257 257 259 260 260 261 262
289 286 283 281 279 280 279 277 277 275 273 271 269 268 266 264 263 262 261 261 260 259 258 257 257 255 254 253 251 250 250 250 250 251 252 253 254 254 255 255 255 256 256 257 258 259 260 261 261
290 285 283 281 282 281 277 275 276 274 272 271 269 268 266 264 265 264 262 262 261 259 258 258 257 256 254 252 251 250 251 251 251 251 253 254 254 255 255 255 254 255 256 258 259 260 259 259 260
291 286 284 281 281 279 277 277 275 274 273 271 270 269 267 266 265 264 262 262 262 260 258 257 256 255 254 252 251 250 250 251 251 252 252 253 253 254 254 255 255 255 256 257 258 259 259 260 260
293 291 288 282 281 280 278 275 274 273 273 272 269 268 267 267 266 265 264 263 262 260 258 257 256 254 252 251 250 250 250 250 250 251 253 253 254 254 254 254 255 256 257 257 258 258 259 260 261
295 292 288 283 280 280 280 277 276 274 273 272 270 268 267 266 266 265 264 262 261 259 257 255 254 253 251 250 249 249 249 249 250 251 252 253 253 253 253 254 254 255 256 257 258 259 259 260 261
297 293 289 286 282 278 277 276 276 275 272 271 271 269 269 268 267 267 265 263 261 259 256 254 253 252 250 250 249 248 249 249 249 251 252 252 252 253 253 253 254 254 256 257 257 258 259 260 260